Location: Ernsee
(50.8780°N, 12.0389°E)
Time: 15:07:20
(UTC+00:00)

ALOS - Pass Details

Date: 20 January 2020
Orbit: 683 x 686 km, 97.8° (Epoch: 21 February)

Event Time Altitude Azimuth Distance (km) Brightness Sun altitude
Rises 04:03:50 0° 18° (NNE) 3,063 5.9 -27.9°
Reaches altitude 10° 04:06:12 10° 26° (NNE) 2,142 5.1 -27.5°
Maximum altitude 04:10:39 42° 98° (E) 970 3.4 -26.8°
Drops below altitude 10° 04:15:04 10° 169° (S) 2,124 4.9 -26.1°
Sets 04:17:24 0° 177° (S) 3,034 5.7 -25.8°
